• In Czech Republic
  • List of Countries
  • For 7 days
  • Water Temperature
  • Satellite Maps
  • Weather Map
  • Weather Widgets
  • user-avatar
    Login

    Hourly Weather Yeghegnadzor

    Today, 23 July, Monday

    Time Temperature Precipitation Wind Pressure Humidity
    00:00 +21°C° 0.4 mm 2 mps 650 mmHg 76%
    01:00 +20°C° 0.2 mm 2 mps 650 mmHg 77%
    02:00 +20°C° 0.2 mm 2 mps 650 mmHg 77%
    03:00 +19°C° 0.2 mm 2 mps 649 mmHg 78%
    04:00 +19°C° 0 mm 2 mps 649 mmHg 76%
    05:00 +20°C° 0 mm 2 mps 650 mmHg 74%
    06:00 +20°C° 0 mm 2 mps 650 mmHg 71%
    07:00 +23°C° 0 mm 2 mps 650 mmHg 63%
    08:00 +25°C° 0 mm 2 mps 650 mmHg 55%
    09:00 +27°C° 0 mm 2 mps 651 mmHg 47%
    10:00 +28°C° 0 mm 2 mps 651 mmHg 43%
    11:00 +29°C° 0 mm 3 mps 650 mmHg 39%
    12:00 +30°C° 0 mm 3 mps 650 mmHg 35%
    13:00 +30°C° 0.1 mm 3 mps 650 mmHg 36%
    14:00 +31°C° 0.1 mm 3 mps 650 mmHg 36%
    15:00 +31°C° 0.1 mm 2 mps 650 mmHg 36%
    16:00 +29°C° 0.3 mm 2 mps 649 mmHg 41%
    17:00 +28°C° 0.3 mm 2 mps 649 mmHg 46%
    18:00 +27°C° 0.3 mm 3 mps 649 mmHg 52%
    19:00 +26°C° 0.4 mm 2 mps 649 mmHg 55%
    20:00 +25°C° 0.4 mm 2 mps 649 mmHg 59%
    21:00 +24°C° 0.4 mm 1 mps 649 mmHg 63%
    22:00 +23°C° 0 mm 2 mps 649 mmHg 64%
    23:00 +21°C° 0 mm 2 mps 649 mmHg 66%

    Tomorrow, 24 July, Tuesday

    Time Temperature Precipitation Wind Pressure Humidity
    00:00 +21°C° 0 mm 2 mps 650 mmHg 67%
    01:00 +20°C° 0 mm 2 mps 649 mmHg 67%
    02:00 +20°C° 0 mm 2 mps 649 mmHg 67%
    03:00 +20°C° 0 mm 2 mps 649 mmHg 67%
    04:00 +20°C° 0 mm 2 mps 650 mmHg 64%
    05:00 +21°C° 0 mm 2 mps 650 mmHg 61%
    06:00 +22°C° 0 mm 1 mps 650 mmHg 59%
    07:00 +24°C° 0 mm 2 mps 650 mmHg 51%
    08:00 +27°C° 0 mm 2 mps 651 mmHg 44%
    09:00 +29°C° 0 mm 2 mps 651 mmHg 36%
    10:00 +30°C° 0 mm 2 mps 651 mmHg 33%
    11:00 +31°C° 0 mm 2 mps 651 mmHg 30%
    12:00 +33°C° 0 mm 3 mps 651 mmHg 27%
    13:00 +34°C° 0 mm 3 mps 651 mmHg 25%
    14:00 +35°C° 0 mm 3 mps 651 mmHg 24%
    15:00 +35°C° 0 mm 3 mps 651 mmHg 23%
    16:00 +34°C° 0 mm 2 mps 651 mmHg 26%
    17:00 +34°C° 0 mm 2 mps 651 mmHg 29%
    18:00 +32°C° 0 mm 1 mps 651 mmHg 32%
    19:00 +30°C° 0 mm 2 mps 651 mmHg 39%
    20:00 +28°C° 0 mm 2 mps 651 mmHg 46%
    21:00 +25°C° 0 mm 2 mps 651 mmHg 53%
    22:00 +25°C° 0 mm 2 mps 651 mmHg 54%
    23:00 +24°C° 0 mm 2 mps 651 mmHg 54%

    Day after tomorrow, 25 July, Wednesday

    Time Temperature Precipitation Wind Pressure Humidity
    00:00 +24°C° 0 mm 2 mps 651 mmHg 55%
    01:00 +24°C° 0 mm 2 mps 651 mmHg 53%
    02:00 +24°C° 0 mm 2 mps 651 mmHg 50%
    03:00 +24°C° 0 mm 2 mps 651 mmHg 48%
    04:00 +24°C° 0 mm 2 mps 651 mmHg 46%
    05:00 +25°C° 0 mm 2 mps 652 mmHg 45%
    06:00 +25°C° 0 mm 2 mps 652 mmHg 44%
    07:00 +27°C° 0 mm 2 mps 652 mmHg 39%
    08:00 +30°C° 0 mm 2 mps 653 mmHg 34%
    09:00 +32°C° 0 mm 2 mps 653 mmHg 29%
    10:00 +35°C° 0 mm 2 mps 653 mmHg 27%
    11:00 +36°C° 0 mm 3 mps 653 mmHg 25%
    12:00 +37°C° 0 mm 3 mps 653 mmHg 23%
    13:00 +38°C° 0 mm 4 mps 653 mmHg 24%
    14:00 +38°C° 0 mm 4 mps 652 mmHg 24%
    15:00 +38°C° 0 mm 4 mps 652 mmHg 24%
    16:00 +38°C° 0 mm 4 mps 652 mmHg 27%
    17:00 +37°C° 0 mm 3 mps 652 mmHg 29%
    18:00 +36°C° 0 mm 3 mps 651 mmHg 32%
    19:00 +34°C° 0 mm 3 mps 651 mmHg 40%
    20:00 +31°C° 0 mm 3 mps 651 mmHg 47%
    21:00 +28°C° 0 mm 3 mps 651 mmHg 55%
    22:00 +28°C° 0 mm 3 mps 651 mmHg 56%
    23:00 +27°C° 0 mm 3 mps 651 mmHg 57%

    26 July, Thursday

    Time Temperature Precipitation Wind Pressure Humidity
    00:00 +27°C° 0 mm 3 mps 651 mmHg 58%
    01:00 +26°C° 0 mm 3 mps 651 mmHg 56%
    02:00 +26°C° 0 mm 2 mps 651 mmHg 55%
    03:00 +26°C° 0 mm 2 mps 651 mmHg 54%
    04:00 +26°C° 0 mm 2 mps 651 mmHg 52%
    05:00 +27°C° 0 mm 2 mps 651 mmHg 51%
    06:00 +27°C° 0 mm 2 mps 652 mmHg 49%
    07:00 +29°C° 0 mm 2 mps 652 mmHg 44%
    08:00 +32°C° 0 mm 2 mps 653 mmHg 38%
    09:00 +35°C° 0 mm 2 mps 653 mmHg 32%
    10:00 +36°C° 0 mm 3 mps 653 mmHg 30%
    11:00 +37°C° 0 mm 3 mps 653 mmHg 28%
    12:00 +40°C° 0 mm 4 mps 653 mmHg 25%
    13:00 +40°C° 0 mm 4 mps 653 mmHg 26%
    14:00 +40°C° 0 mm 4 mps 652 mmHg 27%
    15:00 +40°C° 0 mm 4 mps 652 mmHg 27%
    16:00 +38°C° 0 mm 4 mps 652 mmHg 31%
    17:00 +37°C° 0 mm 4 mps 652 mmHg 35%
    18:00 +36°C° 0 mm 5 mps 651 mmHg 39%
    19:00 +34°C° 0 mm 4 mps 651 mmHg 47%
    20:00 +30°C° 0 mm 4 mps 651 mmHg 54%
    21:00 +28°C° 0 mm 3 mps 651 mmHg 62%
    22:00 +28°C° 0 mm 3 mps 651 mmHg 63%
    23:00 +27°C° 0 mm 3 mps 651 mmHg 64%

    27 July, Friday

    Time Temperature Precipitation Wind Pressure Humidity
    00:00 +26°C° 0 mm 3 mps 651 mmHg 65%
    01:00 +26°C° 0 mm 3 mps 651 mmHg 64%
    02:00 +26°C° 0 mm 3 mps 651 mmHg 63%
    03:00 +25°C° 0 mm 2 mps 651 mmHg 62%
    04:00 +25°C° 0 mm 2 mps 651 mmHg 60%
    05:00 +26°C° 0 mm 2 mps 652 mmHg 57%
    06:00 +26°C° 0 mm 2 mps 652 mmHg 55%
    07:00 +28°C° 0 mm 2 mps 653 mmHg 49%
    08:00 +31°C° 0 mm 2 mps 653 mmHg 43%
    09:00 +34°C° 0 mm 2 mps 653 mmHg 37%
    10:00 +35°C° 0 mm 2 mps 653 mmHg 34%
    11:00 +36°C° 0 mm 3 mps 653 mmHg 31%
    12:00 +37°C° 0 mm 3 mps 653 mmHg 29%
    13:00 +38°C° 0 mm 4 mps 653 mmHg 28%
    14:00 +38°C° 0 mm 4 mps 652 mmHg 28%
    15:00 +38°C° 0 mm 4 mps 652 mmHg 27%
    16:00 +37°C° 0 mm 4 mps 652 mmHg 31%
    17:00 +36°C° 0 mm 5 mps 652 mmHg 34%
    18:00 +35°C° 0 mm 5 mps 651 mmHg 38%
    19:00 +32°C° 0 mm 4 mps 651 mmHg 43%
    20:00 +29°C° 0 mm 4 mps 651 mmHg 48%
    21:00 +27°C° 0 mm 4 mps 651 mmHg 53%
    22:00 +26°C° 0 mm 3 mps 651 mmHg 51%
    23:00 +26°C° 0 mm 3 mps 651 mmHg 50%

    28 July, Saturday

    Time Temperature Precipitation Wind Pressure Humidity
    00:00 +25°C° 0 mm 3 mps 651 mmHg 49%
    01:00 +25°C° 0 mm 3 mps 651 mmHg 48%
    02:00 +25°C° 0 mm 3 mps 651 mmHg 47%
    03:00 +24°C° 0 mm 2 mps 651 mmHg 45%
    04:00 +25°C° 0 mm 2 mps 651 mmHg 44%
    05:00 +25°C° 0 mm 2 mps 651 mmHg 44%
    06:00 +25°C° 0 mm 2 mps 652 mmHg 43%
    07:00 +28°C° 0 mm 2 mps 652 mmHg 38%
    08:00 +30°C° 0 mm 2 mps 652 mmHg 34%
    09:00 +32°C° 0 mm 2 mps 653 mmHg 29%
    10:00 +34°C° 0 mm 2 mps 653 mmHg 28%
    11:00 +36°C° 0 mm 3 mps 653 mmHg 26%
    12:00 +37°C° 0 mm 3 mps 652 mmHg 24%
    13:00 +38°C° 0 mm 4 mps 652 mmHg 23%
    14:00 +38°C° 0 mm 4 mps 652 mmHg 23%
    15:00 +38°C° 0 mm 4 mps 652 mmHg 22%
    16:00 +37°C° 0 mm 4 mps 652 mmHg 25%
    17:00 +36°C° 0 mm 4 mps 651 mmHg 28%
    18:00 +35°C° 0 mm 4 mps 651 mmHg 31%
    19:00 +33°C° 0 mm 4 mps 651 mmHg 36%
    20:00 +29°C° 0 mm 4 mps 651 mmHg 42%
    21:00 +27°C° 0 mm 4 mps 651 mmHg 47%
    22:00 +26°C° 0 mm 3 mps 651 mmHg 46%
    23:00 +26°C° 0 mm 3 mps 651 mmHg 45%
    Show more